Regional Weather Roundup
Issued by NWS State College, PA

Home | Current Version | Previous Version | Graphics & Text | Print | Product List | Glossary Off
Versions: 1 2 3 4 5 6 7 8 9 10 11 12 13 14 15 16 17 18 19 20 21 22 23 24 25 26 27 28 29 30 31 32 33 34 35 36 37 38 39 40 41 42 43 44 45 46 47 48 49 50

000
ASUS41 KCTP 271010
RWRCTP

REGIONAL WEATHER ROUNDUP
NATIONAL WEATHER SERVICE STATE COLLEGE PA
500 AM EST THU NOV 27 2014

Note: "fair" indicates few or no clouds below 12,000 feet with no
significant weather and/or obstructions to visibility.

* = STATION THAT DOES NOT REPORT PRECIPITATION /E.G. RAIN...SNOW...ETC/
    THUNDER OR FOG.

PAZ002>004-007>009-013>016-020>023-029>032-271100-
WESTERN PENNSYLVANIA

CITY           SKY/WX    TMP DP  RH WIND       PRES   REMARKS
ERIE           LGT SNOW  32  26  78 NE7       30.02R
MEADVILLE      CLOUDY    31  28  89 N5        29.97R
FRANKLIN*      CLOUDY    30  27  86 SW5       29.97S
NEW CASTLE       N/A     31  27  85 CALM      30.01S
BEAVER COUNTY  NOT AVBL
BUTLER*        CLOUDY    30  30 100 CALM      30.00R
PITTSBURGH INT CLOUDY    32  31  96 W3        29.99S FOG
PITTSBURGH     CLOUDY    32  29  88 W6        29.98R FOG
INDIANA*       CLOUDY    32  32 100 CALM      30.01S FOG
LATROBE        CLOUDY    32  32 100 CALM      30.00S FOG
WASHINGTON CO* CLOUDY    32  28  86 CALM      30.00S
$$

PAZ004>006-010>012-017>019-024>028-033>037-041-042-045-046-049>053-271100-
CENTRAL PENNSYLVANIA

CITY           SKY/WX    TMP DP  RH WIND       PRES   REMARKS
BRADFORD       CLOUDY    27  22  81 E5        29.93S
DUBOIS         CLOUDY    29  27  92 CALM      29.94R FOG
CLEARFIELD     CLOUDY    30  28  92 CALM      29.97R
JOHNSTOWN      CLOUDY    29  27  92 W6        29.92S FOG
ALTOONA        CLOUDY    31  30  96 CALM      29.96S FOG
STATE COLLEGE  CLOUDY    30  29  95 CALM      29.98R
WILLIAMSPORT   CLOUDY    32  28  85 W7        30.00R
SELINSGROVE    CLOUDY    31  29  92 N3        29.99F
FT INDIANTOWN  MOCLDY    33  27  78 N16G22    29.95F
CAPITAL CITY   MOCLDY    34  29  82 W5        29.99S
HARRISBURG     CLOUDY    34  29  82 NW5       29.99R
YORK           MOCLDY    30  28  92 NW3       29.98S
$$

PAZ038>040-043-044-047-048-054-055-060>062-067>071-271100-
EASTERN PENNSYLVANIA

CITY           SKY/WX    TMP DP  RH WIND       PRES   REMARKS
SCRANTON       FLURRIES  30  26  85 W8G16     29.95R
MOUNT POCONO   LGT SNOW  27  24  89 NW12      29.87R FOG
ALLENTOWN      FLURRIES  33  29  85 W5        29.96R
QUAKERTOWN*    PTSUNNY   32  30  93 NW5       29.96S
READING        FLURRIES  35  29  78 N5        29.96F
LANCASTER      CLOUDY    33  29  85 W7        29.98S
COATESVILLE    CLOUDY    32  32 100 NW8       29.96R
POTTSTOWN      LGT SNOW  32  31  96 NW6       29.97F FOG
BLUE BELL      CLOUDY    36  32  87 W5        29.96S
DOYLESTOWN     FLURRIES  32  30  92 W8        29.95R
WILLOW GROVE   NOT AVBL
NORTH PHILA    FLURRIES  36  29  75 W8        29.99R
PHILADELPHIA   FLURRIES  35  31  85 NW6       29.97F
$$


USA.gov is the U.S. government's official web portal to all federal, state and local government web resources and services.